| time (UTC) | temp F | wind direction | speed knots | gust knots | rain 1hr in | rain 24hr in | rain mn in | humidity % | barometer mb |
| 20260506231102 | 78 | 200 | 1.7 | 6.1 | 0.00 | 0.00 | 0.00 | 72 | 1012.5 |
| 20260506230547 | 78 | 200 | 1.7 | 5.2 | 0.00 | 0.00 | 0.00 | 72 | 1012.2 |
| 20260506230056 | 78 | 195 | 1.7 | 6.1 | 0.00 | 0.00 | 0.00 | 72 | 1012.2 |
| 20260506225603 | 78 | 184 | 2.6 | 6.1 | 0.00 | 0.00 | 0.00 | 71 | 1012.4 |
| 20260506224603 | 78 | 169 | 1.7 | 6.1 | 0.00 | 0.00 | 0.00 | 71 | 1012.2 |
| 20260506224048 | 78 | 158 | 1.7 | 7.0 | 0.00 | 0.00 | 0.00 | 71 | 1012.4 |
| 20260506223554 | 78 | 198 | 1.7 | 7.0 | 0.00 | 0.00 | 0.00 | 71 | 1012.6 |
| 20260506223506 | 78 | 216 | 1.7 | 7.0 | 0.00 | 0.00 | 0.00 | 71 | 1011.2 |
| 20260506222547 | 78 | 163 | 1.7 | 4.3 | 0.00 | 0.00 | 0.00 | 71 | 1012.4 |
| 20260506222056 | 78 | 167 | 1.7 | 6.1 | 0.00 | 0.00 | 0.00 | 71 | 1012.3 |
| 20260506221603 | 79 | 175 | 0.9 | 6.1 | 0.00 | 0.00 | 0.00 | 71 | 1012.4 |
| 20260506221052 | 79 | 166 | 1.7 | 7.8 | 0.00 | 0.00 | 0.00 | 71 | 1012.5 |
| 20260506220052 | 79 | 249 | 1.7 | 7.0 | 0.00 | 0.00 | 0.00 | 69 | 1012.3 |
| 20260506215103 | 80 | 184 | 2.6 | 8.7 | 0.00 | 0.00 | 0.00 | 69 | 1012.1 |
| 20260506214550 | 80 | 148 | 2.6 | 8.7 | 0.00 | 0.00 | 0.00 | 68 | 1011.9 |
| 20260506213551 | 79 | 227 | 2.6 | 7.0 | 0.00 | 0.00 | 0.00 | 69 | 1012.2 |
| 20260506213502 | 79 | 165 | 1.7 | 7.0 | 0.00 | 0.00 | 0.00 | 69 | 1010.8 |
| 20260506212601 | 80 | 241 | 4.3 | 9.6 | 0.00 | 0.00 | 0.00 | 69 | 1012.3 |
| 20260506212051 | 80 | 231 | 3.5 | 7.8 | 0.00 | 0.00 | 0.00 | 69 | 1012.4 |
| 20260506211558 | 80 | 113 | 1.7 | 8.7 | 0.00 | 0.00 | 0.00 | 70 | 1012.4 |
| 20260506211102 | 79 | 214 | 2.6 | 8.7 | 0.00 | 0.00 | 0.00 | 70 | 1012.3 |
| 20260506210550 | 79 | 148 | 2.6 | 7.0 | 0.00 | 0.00 | 0.00 | 70 | 1012.5 |
| 20260506205550 | 79 | 197 | 4.3 | 8.7 | 0.00 | 0.00 | 0.00 | 68 | 1012.5 |
| 20260506204047 | 80 | 203 | 1.7 | 8.7 | 0.00 | 0.00 | 0.00 | 69 | 1013.0 |
| 20260506203049 | 80 | 262 | 2.6 | 7.0 | 0.00 | 0.00 | 0.00 | 69 | 1013.1 |
| 20260506202558 | 80 | 208 | 2.6 | 7.8 | 0.00 | 0.00 | 0.00 | 68 | 1013.2 |
| 20260506201552 | 80 | 183 | 2.6 | 11.3 | 0.00 | 0.00 | 0.00 | 70 | 1013.4 |
| 20260506201102 | 79 | 169 | 4.3 | 11.3 | 0.00 | 0.00 | 0.00 | 69 | 1013.4 |
| 20260506200550 | 79 | 231 | 3.5 | 9.6 | 0.00 | 0.00 | 0.00 | 70 | 1013.5 |
| 20260506200059 | 79 | 248 | 4.3 | 9.6 | 0.00 | 0.00 | 0.00 | 69 | 1013.5 |
| 20260506195602 | 79 | 264 | 3.5 | 10.4 | 0.00 | 0.00 | 0.00 | 67 | 1013.7 |
| 20260506195049 | 79 | 203 | 4.3 | 10.4 | 0.00 | 0.00 | 0.00 | 68 | 1013.9 |
| 20260506194559 | 80 | 169 | 1.7 | 6.1 | 0.00 | 0.00 | 0.00 | 67 | 1014.0 |
| 20260506194052 | 80 | 193 | 1.7 | 7.0 | 0.00 | 0.00 | 0.00 | 67 | 1014.1 |
| 20260506192558 | 80 | 169 | 1.7 | 7.8 | 0.00 | 0.00 | 0.00 | 66 | 1014.1 |
| 20260506192048 | 80 | 178 | 3.5 | 9.6 | 0.00 | 0.00 | 0.00 | 66 | 1014.4 |
| 20260506191556 | 79 | 192 | 3.5 | 9.6 | 0.00 | 0.00 | 0.00 | 68 | 1014.6 |
| 20260506191045 | 79 | 160 | 3.5 | 9.6 | 0.00 | 0.00 | 0.00 | 67 | 1014.6 |
| 20260506190556 | 80 | 181 | 2.6 | 7.0 | 0.00 | 0.00 | 0.00 | 66 | 1014.5 |
| 20260506190046 | 79 | 193 | 3.5 | 7.0 | 0.00 | 0.00 | 0.00 | 68 | 1014.8 |
| 20260506185101 | 78 | 198 | 3.5 | 8.7 | 0.00 | 0.00 | 0.00 | 66 | 1014.8 |
| 20260506184552 | 79 | 185 | 3.5 | 7.8 | 0.00 | 0.00 | 0.00 | 66 | 1014.7 |
| 20260506184102 | 79 | 169 | 3.5 | 8.7 | 0.00 | 0.00 | 0.00 | 65 | 1014.9 |
| 20260506183551 | 80 | 266 | 3.5 | 8.7 | 0.00 | 0.00 | 0.00 | 65 | 1014.9 |
| 20260506182053 | 79 | 191 | 1.7 | 8.7 | 0.00 | 0.00 | 0.00 | 66 | 1014.8 |
| 20260506181601 | 79 | 172 | 4.3 | 8.7 | 0.00 | 0.00 | 0.00 | 66 | 1014.8 |
| 20260506181053 | 78 | 244 | 1.7 | 7.0 | 0.00 | 0.00 | 0.00 | 66 | 1014.7 |
| 20260506180559 | 78 | 212 | 3.5 | 7.0 | 0.00 | 0.00 | 0.00 | 66 | 1014.9 |
| 20260506180106 | 78 | 188 | 2.6 | 6.1 | 0.00 | 0.00 | 0.00 | 67 | 1014.9 |
| 20260506175554 | 78 | 197 | 2.6 | 7.8 | 0.00 | 0.00 | 0.00 | 66 | 1014.8 |
| 20260506175102 | 78 | 240 | 3.5 | 7.8 | 0.00 | 0.00 | 0.00 | 66 | 1014.7 |
| 20260506174546 | 79 | 171 | 4.3 | 10.4 | 0.00 | 0.00 | 0.00 | 65 | 1014.7 |
| 20260506174058 | 80 | 232 | 3.5 | 10.4 | 0.00 | 0.00 | 0.00 | 65 | 1014.6 |
| 20260506173547 | 80 | 179 | 3.5 | 7.8 | 0.00 | 0.00 | 0.00 | 65 | 1014.6 |
| 20260506173054 | 81 | 249 | 2.6 | 6.1 | 0.00 | 0.00 | 0.00 | 64 | 1014.6 |
| 20260506172602 | 81 | 203 | 2.6 | 7.8 | 0.00 | 0.00 | 0.00 | 64 | 1014.7 |
| 20260506171545 | 79 | 172 | 1.7 | 6.1 | 0.00 | 0.00 | 0.00 | 69 | 1014.8 |
| 20260506171056 | 79 | 171 | 1.7 | 7.0 | 0.00 | 0.00 | 0.00 | 67 | 1014.9 |
| 20260506170603 | 78 | 181 | 4.3 | 12.2 | 0.00 | 0.00 | 0.00 | 68 | 1014.9 |
| 20260506170125 | 76 | 214 | 3.5 | 12.2 | 0.00 | 0.00 | 0.00 | 68 | 1015.0 |
| 20260506165602 | 76 | 201 | 2.6 | 10.4 | 0.00 | 0.00 | 0.00 | 70 | 1015.1 |
| 20260506165051 | 76 | 204 | 2.6 | 5.2 | 0.00 | 0.00 | 0.00 | 70 | 1015.3 |
| 20260506164602 | 76 | 236 | 2.6 | 8.7 | 0.00 | 0.00 | 0.00 | 71 | 1015.3 |
| 20260506164050 | 76 | 192 | 4.3 | 8.7 | 0.00 | 0.00 | 0.00 | 70 | 1015.5 |
| 20260506163108 | 76 | 195 | 4.3 | 11.3 | 0.00 | 0.00 | 0.00 | 69 | 1015.5 |
| 20260506162046 | 76 | 243 | 2.6 | 8.7 | 0.00 | 0.00 | 0.00 | 71 | 1015.6 |
| 20260506161554 | 76 | 240 | 1.7 | 9.6 | 0.00 | 0.00 | 0.00 | 71 | 1015.8 |
| 20260506161046 | 76 | 182 | 4.3 | 9.6 | 0.00 | 0.00 | 0.00 | 70 | 1015.9 |
| 20260506160558 | 76 | 232 | 1.7 | 9.6 | 0.00 | 0.00 | 0.00 | 71 | 1015.9 |
| 20260506160049 | 75 | 229 | 3.5 | 9.6 | 0.00 | 0.00 | 0.00 | 72 | 1016.1 |
| 20260506155548 | 74 | 169 | 3.5 | 7.8 | 0.00 | 0.00 | 0.00 | 74 | 1016.2 |
| 20260506155101 | 74 | 227 | 3.5 | 7.8 | 0.00 | 0.00 | 0.00 | 74 | 1016.2 |
| 20260506154550 | 74 | 159 | 2.6 | 7.8 | 0.00 | 0.00 | 0.00 | 75 | 1016.3 |
| 20260506153552 | 73 | 176 | 2.6 | 7.0 | 0.00 | 0.00 | 0.00 | 74 | 1016.5 |
| 20260506153057 | 73 | 252 | 2.6 | 7.8 | 0.00 | 0.00 | 0.00 | 75 | 1016.4 |
| 20260506152602 | 73 | 229 | 3.5 | 10.4 | 0.00 | 0.00 | 0.00 | 76 | 1016.4 |
| 20260506152052 | 72 | 252 | 6.1 | 10.4 | 0.00 | 0.00 | 0.00 | 75 | 1016.4 |
| 20260506151602 | 72 | 240 | 3.5 | 7.8 | 0.00 | 0.00 | 0.00 | 75 | 1016.3 |
| 20260506151050 | 72 | 264 | 2.6 | 10.4 | 0.00 | 0.00 | 0.00 | 75 | 1016.3 |
| 20260506145555 | 72 | 182 | 3.5 | 8.7 | 0.00 | 0.00 | 0.00 | 74 | 1016.2 |
| 20260506145046 | 72 | 143 | 4.3 | 9.6 | 0.00 | 0.00 | 0.00 | 73 | 1016.4 |
| 20260506144557 | 73 | 213 | 5.2 | 10.4 | 0.00 | 0.00 | 0.00 | 74 | 1016.3 |
| 20260506143052 | 72 | 177 | 1.7 | 8.7 | 0.00 | 0.00 | 0.00 | 76 | 1016.0 |
| 20260506142557 | 72 | 252 | 1.7 | 4.3 | 0.00 | 0.00 | 0.00 | 76 | 1015.9 |
| 20260506140556 | 71 | 219 | 2.6 | 7.8 | 0.00 | 0.00 | 0.00 | 79 | 1015.9 |
| 20260506140045 | 71 | 179 | 3.5 | 7.8 | 0.00 | 0.00 | 0.00 | 80 | 1015.7 |
| 20260506135555 | 70 | 189 | 4.3 | 9.6 | 0.00 | 0.00 | 0.00 | 81 | 1015.4 |
| 20260506135101 | 69 | 212 | 3.5 | 9.6 | 0.00 | 0.00 | 0.00 | 83 | 1015.4 |
| 20260506134102 | 69 | 178 | 3.5 | 7.8 | 0.00 | 0.00 | 0.00 | 84 | 1015.2 |
| 20260506133553 | 69 | 208 | 1.7 | 7.8 | 0.00 | 0.00 | 0.00 | 84 | 1015.1 |
| 20260506133103 | 69 | 167 | 4.3 | 7.8 | 0.00 | 0.00 | 0.00 | 84 | 1015.1 |
| 20260506132549 | 68 | 229 | 1.7 | 7.0 | 0.00 | 0.00 | 0.00 | 85 | 1015.2 |
| 20260506132059 | 68 | 176 | 3.5 | 7.0 | 0.00 | 0.00 | 0.00 | 85 | 1015.2 |
| 20260506131549 | 68 | 173 | 2.6 | 5.2 | 0.00 | 0.00 | 0.00 | 85 | 1015.2 |
| 20260506131055 | 68 | 172 | 2.6 | 9.6 | 0.00 | 0.00 | 0.00 | 86 | 1015.1 |
| 20260506130544 | 68 | 178 | 1.7 | 9.6 | 0.00 | 0.00 | 0.00 | 86 | 1015.1 |
| 20260506130055 | 68 | 193 | 4.3 | 7.8 | 0.00 | 0.00 | 0.00 | 86 | 1014.9 |
| 20260506125559 | 67 | 186 | 1.7 | 6.1 | 0.00 | 0.00 | 0.00 | 88 | 1015.1 |
| 20260506125051 | 67 | 186 | 3.5 | 7.0 | 0.00 | 0.00 | 0.00 | 88 | 1015.2 |
| 20260506124600 | 66 | 141 | 3.5 | 7.0 | 0.00 | 0.00 | 0.00 | 88 | 1015.3 |
| 20260506124052 | 66 | 153 | 1.7 | 6.1 | 0.00 | 0.00 | 0.00 | 88 | 1015.3 |
| 20260506123601 | 66 | 172 | 1.7 | 6.1 | 0.00 | 0.00 | 0.00 | 88 | 1015.1 |
| 20260506123106 | 66 | 196 | 0.9 | 5.2 | 0.00 | 0.00 | 0.00 | 88 | 1015.0 |
| 20260506122548 | 66 | 174 | 3.5 | 5.2 | 0.00 | 0.00 | 0.00 | 88 | 1015.1 |
| 20260506122057 | 65 | 182 | 2.6 | 5.2 | 0.00 | 0.00 | 0.00 | 88 | 1015.0 |
| 20260506121546 | 65 | 217 | 0.9 | 5.2 | 0.00 | 0.00 | 0.00 | 88 | 1015.0 |
| 20260506121059 | 65 | 207 | 0.9 | 4.3 | 0.00 | 0.00 | 0.00 | 88 | 1014.9 |
| 20260506115547 | 65 | 175 | 0.9 | 2.6 | 0.00 | 0.00 | 0.00 | 88 | 1014.8 |
| 20260506115057 | 64 | 205 | 0.9 | 4.3 | 0.00 | 0.00 | 0.00 | 88 | 1014.7 |
| 20260506114100 | 64 | 202 | 1.7 | 4.3 | 0.00 | 0.00 | 0.00 | 88 | 1014.6 |
| 20260506113551 | 64 | 193 | 1.7 | 4.3 | 0.00 | 0.00 | 0.00 | 88 | 1014.6 |
| 20260506113101 | 64 | 152 | 2.6 | 4.3 | 0.00 | 0.00 | 0.00 | 88 | 1014.6 |
| 20260506112058 | 64 | 206 | 1.7 | 3.5 | 0.00 | 0.00 | 0.00 | 87 | 1014.6 |
| 20260506111549 | 63 | 191 | 0.9 | 3.5 | 0.00 | 0.00 | 0.00 | 87 | 1014.6 |
| 20260506111059 | 63 | 141 | 0.9 | 3.5 | 0.00 | 0.00 | 0.00 | 87 | 1014.5 |
| 20260506110551 | 63 | 191 | 0.9 | 3.5 | 0.00 | 0.00 | 0.00 | 86 | 1014.3 |
| 20260506110507 | 63 | 191 | 0.9 | 3.5 | 0.00 | 0.00 | 0.00 | 87 | 1013.3 |
| 20260506110133 | 63 | 186 | 0.9 | 4.3 | 0.00 | 0.00 | 0.00 | 86 | 1014.3 |
| 20260506110025 | 63 | 201 | 0.0 | 4.3 | 0.00 | 0.00 | 0.00 | 86 | 1013.3 |
| 20260506105552 | 63 | 238 | 1.7 | 4.3 | 0.00 | 0.00 | 0.00 | 86 | 1014.4 |
| 20260506105102 | 64 | 207 | 1.7 | 3.5 | 0.00 | 0.00 | 0.00 | 86 | 1014.4 |
| 20260506104552 | 64 | 221 | 0.9 | 3.5 | 0.00 | 0.00 | 0.00 | 85 | 1014.2 |
| 20260506104056 | 64 | 205 | 0.9 | 4.3 | 0.00 | 0.00 | 0.00 | 86 | 1014.1 |
| 20260506103605 | 64 | 186 | 1.7 | 6.1 | 0.00 | 0.00 | 0.00 | 86 | 1013.9 |
| 20260506103055 | 64 | 211 | 2.6 | 4.3 | 0.00 | 0.00 | 0.00 | 85 | 1013.9 |
| 20260506102601 | 64 | 205 | 1.7 | 5.2 | 0.00 | 0.00 | 0.00 | 85 | 1013.8 |
| 20260506102106 | 64 | 186 | 2.6 | 5.2 | 0.00 | 0.00 | 0.00 | 85 | 1013.7 |
| 20260506101549 | 64 | 160 | 2.6 | 4.3 | 0.00 | 0.00 | 0.00 | 85 | 1013.5 |
| 20260506100057 | 64 | 188 | 1.7 | 4.3 | 0.00 | 0.00 | 0.00 | 84 | 1013.3 |
| 20260506095601 | 64 | 176 | 1.7 | 7.0 | 0.00 | 0.00 | 0.00 | 84 | 1013.4 |
| 20260506095050 | 64 | 172 | 2.6 | 7.0 | 0.00 | 0.00 | 0.00 | 84 | 1013.5 |
| 20260506094556 | 64 | 167 | 1.7 | 7.0 | 0.00 | 0.00 | 0.00 | 84 | 1013.6 |
| 20260506094048 | 64 | 175 | 2.6 | 7.0 | 0.00 | 0.00 | 0.00 | 83 | 1013.5 |
| 20260506093102 | 64 | 177 | 1.7 | 4.3 | 0.00 | 0.00 | 0.00 | 82 | 1013.4 |
| 20260506092548 | 64 | 232 | 1.7 | 4.3 | 0.00 | 0.00 | 0.00 | 82 | 1013.3 |
| 20260506092056 | 64 | 190 | 0.9 | 3.5 | 0.00 | 0.00 | 0.00 | 81 | 1013.2 |
| 20260506091055 | 65 | 195 | 0.9 | 1.7 | 0.00 | 0.00 | 0.00 | 81 | 1013.2 |
| 20260506090606 | 65 | 203 | 0.9 | 1.7 | 0.00 | 0.00 | 0.00 | 81 | 1013.1 |
| 20260506085602 | 65 | 172 | 0.0 | 2.6 | 0.00 | 0.00 | 0.00 | 80 | 1013.2 |
| 20260506085050 | 65 | 172 | 0.9 | 2.6 | 0.00 | 0.00 | 0.00 | 80 | 1013.2 |
| 20260506084047 | 65 | 189 | 0.9 | 3.5 | 0.00 | 0.00 | 0.00 | 79 | 1013.2 |
| 20260506083558 | 65 | 180 | 1.7 | 3.5 | 0.00 | 0.00 | 0.00 | 79 | 1013.2 |
| 20260506083046 | 65 | 200 | 0.9 | 3.5 | 0.00 | 0.00 | 0.00 | 79 | 1013.3 |
| 20260506082554 | 65 | 108 | 0.0 | 5.2 | 0.00 | 0.00 | 0.00 | 78 | 1013.2 |
| 20260506082059 | 65 | 179 | 1.7 | 5.2 | 0.00 | 0.00 | 0.00 | 78 | 1013.3 |
| 20260506081548 | 65 | 186 | 1.7 | 3.5 | 0.00 | 0.00 | 0.00 | 77 | 1013.2 |
| 20260506081056 | 65 | 170 | 1.7 | 3.5 | 0.00 | 0.00 | 0.00 | 77 | 1013.3 |
| 20260506073049 | 64 | 165 | 0.0 | 0.0 | 0.00 | 0.00 | 0.00 | 73 | 1013.5 |
| 20260506072047 | 64 | 188 | 0.0 | 1.7 | 0.00 | 0.00 | 0.00 | 73 | 1013.8 |
| 20260506071101 | 64 | 188 | 0.0 | 0.9 | 0.00 | 0.00 | 0.00 | 71 | 1014.0 |
| 20260506062052 | 66 | 188 | 0.0 | 1.7 | 0.00 | 0.00 | 0.00 | 65 | 1014.1 |
| 20260506061556 | 66 | 188 | 0.0 | 1.7 | 0.00 | 0.00 | 0.00 | 65 | 1014.1 |
| 20260506061047 | 66 | 188 | 0.0 | 2.6 | 0.00 | 0.00 | 0.00 | 64 | 1014.1 |
| 20260506060557 | 67 | 188 | 0.9 | 4.3 | 0.00 | 0.00 | 0.00 | 64 | 1014.1 |
| 20260506060107 | 67 | 190 | 1.7 | 4.3 | 0.00 | 0.00 | 0.00 | 63 | 1014.1 |
| 20260506051054 | 68 | 180 | 1.7 | 3.5 | 0.00 | 0.00 | 0.00 | 58 | 1013.7 |
| 20260506050545 | 68 | 200 | 1.7 | 3.5 | 0.00 | 0.00 | 0.00 | 57 | 1013.8 |
| 20260506050111 | 68 | 162 | 0.9 | 6.1 | 0.00 | 0.00 | 0.00 | 57 | 1013.8 |
| 20260506045046 | 68 | 182 | 0.0 | 3.5 | 0.00 | 0.00 | 0.00 | 56 | 1014.0 |
| 20260506044558 | 69 | 180 | 1.7 | 3.5 | 0.00 | 0.00 | 0.00 | 56 | 1014.2 |
| 20260506044047 | 69 | 169 | 0.0 | 3.5 | 0.00 | 0.00 | 0.00 | 55 | 1014.1 |
| 20260506043600 | 69 | 187 | 0.9 | 3.5 | 0.00 | 0.00 | 0.00 | 54 | 1014.1 |
| 20260506043051 | 69 | 175 | 0.9 | 3.5 | 0.00 | 0.00 | 0.00 | 54 | 1014.0 |
| 20260506042046 | 70 | 200 | 0.9 | 3.5 | 0.00 | 0.00 | 0.00 | 53 | 1013.9 |
| 20260506041559 | 70 | 84 | 0.9 | 3.5 | 0.00 | 0.00 | 0.00 | 52 | 1013.8 |
| 20260506041046 | 70 | 95 | 1.7 | 3.5 | 0.00 | 0.00 | 0.00 | 52 | 1013.7 |
| 20260506040557 | 69 | 125 | 0.9 | 3.5 | 0.00 | 0.00 | 0.00 | 52 | 1013.8 |
| 20260506040119 | 69 | 180 | 0.9 | 3.5 | 0.00 | 0.00 | 0.00 | 52 | 1013.8 |
| 20260506035558 | 69 | 166 | 0.9 | 4.3 | 0.00 | 0.00 | 0.00 | 53 | 1013.7 |
| 20260506035047 | 69 | 113 | 1.7 | 3.5 | 0.00 | 0.00 | 0.00 | 53 | 1014.0 |
| 20260506033603 | 69 | 163 | 0.0 | 1.7 | 0.00 | 0.00 | 0.00 | 55 | 1014.2 |
| 20260506033052 | 69 | 163 | 0.0 | 1.7 | 0.00 | 0.00 | 0.00 | 54 | 1014.1 |
| 20260506032557 | 69 | 163 | 0.0 | 2.6 | 0.00 | 0.00 | 0.00 | 55 | 1014.2 |
| 20260506032047 | 69 | 163 | 0.9 | 2.6 | 0.00 | 0.00 | 0.00 | 54 | 1014.2 |
| 20260506031103 | 69 | 158 | 0.0 | 0.0 | 0.00 | 0.00 | 0.00 | 54 | 1014.0 |
| 20260506030549 | 69 | 157 | 0.0 | 0.0 | 0.00 | 0.00 | 0.00 | 53 | 1014.1 |
| 20260506030503 | 69 | 158 | 0.0 | 0.0 | 0.00 | 0.00 | 0.00 | 53 | 1013.2 |
| 20260506030129 | 69 | 158 | 0.0 | 0.9 | 0.00 | 0.00 | 0.00 | 53 | 1014.0 |
| 20260506030023 | 69 | 158 | 0.0 | 0.9 | 0.00 | 0.00 | 0.00 | 53 | 1013.1 |
| 20260506025547 | 70 | 158 | 0.0 | 0.9 | 0.00 | 0.00 | 0.00 | 52 | 1014.0 |
| 20260506025059 | 70 | 157 | 0.0 | 0.9 | 0.00 | 0.00 | 0.00 | 52 | 1014.1 |
| 20260506024553 | 70 | 158 | 0.9 | 1.7 | 0.00 | 0.00 | 0.00 | 51 | 1014.0 |
| 20260506023551 | 70 | 211 | 0.9 | 2.6 | 0.00 | 0.00 | 0.00 | 52 | 1014.0 |
| 20260506023100 | 70 | 158 | 0.9 | 3.5 | 0.00 | 0.00 | 0.00 | 51 | 1014.0 |
| 20260506022546 | 70 | 158 | 0.9 | 3.5 | 0.00 | 0.00 | 0.00 | 52 | 1014.0 |
| 20260506022054 | 70 | 186 | 0.9 | 3.5 | 0.00 | 0.00 | 0.00 | 51 | 1014.1 |
| 20260506021603 | 70 | 192 | 0.9 | 2.6 | 0.00 | 0.00 | 0.00 | 51 | 1014.1 |
| 20260506021052 | 70 | 180 | 0.9 | 3.5 | 0.00 | 0.00 | 0.00 | 51 | 1014.1 |
| 20260506020557 | 71 | 153 | 0.9 | 3.5 | 0.00 | 0.00 | 0.00 | 51 | 1013.9 |
| 20260506020047 | 71 | 169 | 0.9 | 3.5 | 0.00 | 0.00 | 0.00 | 51 | 1014.0 |
| 20260506015104 | 71 | 155 | 0.0 | 2.6 | 0.00 | 0.00 | 0.00 | 51 | 1013.9 |
| 20260506014549 | 71 | 155 | 0.9 | 2.6 | 0.00 | 0.00 | 0.00 | 51 | 1013.7 |
| 20260506014058 | 71 | 144 | 0.9 | 2.6 | 0.00 | 0.00 | 0.00 | 52 | 1013.8 |
| 20260506013546 | 70 | 188 | 0.0 | 0.0 | 0.00 | 0.00 | 0.00 | 52 | 1013.9 |
| 20260506013055 | 70 | 188 | 0.0 | 0.0 | 0.00 | 0.00 | 0.00 | 53 | 1013.9 |
| 20260506012559 | 70 | 188 | 0.0 | 0.0 | 0.00 | 0.00 | 0.00 | 53 | 1013.9 |
| 20260506012045 | 71 | 188 | 0.0 | 0.0 | 0.00 | 0.00 | 0.00 | 53 | 1013.8 |
| 20260506011557 | 71 | 188 | 0.0 | 0.0 | 0.00 | 0.00 | 0.00 | 52 | 1013.7 |
| 20260506011103 | 71 | 188 | 0.0 | 0.0 | 0.00 | 0.00 | 0.00 | 52 | 1013.6 |
| 20260506010551 | 71 | 188 | 0.0 | 0.0 | 0.00 | 0.00 | 0.00 | 51 | 1013.7 |
| 20260506010054 | 72 | 188 | 0.0 | 0.0 | 0.00 | 0.00 | 0.00 | 51 | 1013.7 |
| 20260506005600 | 72 | 188 | 0.0 | 0.0 | 0.00 | 0.00 | 0.00 | 51 | 1013.8 |
| 20260506005049 | 72 | 188 | 0.0 | 0.0 | 0.00 | 0.00 | 0.00 | 50 | 1013.8 |
| 20260506004050 | 73 | 188 | 0.0 | 0.0 | 0.00 | 0.00 | 0.00 | 49 | 1013.9 |
| 20260506003106 | 74 | 188 | 0.0 | 1.7 | 0.00 | 0.00 | 0.00 | 47 | 1013.9 |
| 20260506002547 | 74 | 188 | 0.0 | 2.6 | 0.00 | 0.00 | 0.00 | 46 | 1013.8 |
| 20260506000555 | 75 | 162 | 1.7 | 4.3 | 0.00 | 0.00 | 0.00 | 44 | 1013.7 |
| 20260505235550 | 75 | 146 | 2.6 | 4.3 | 0.00 | 0.00 | 0.00 | 44 | 1013.5 |
| 20260505234552 | 76 | 199 | 1.7 | 6.1 | 0.00 | 0.00 | 0.00 | 44 | 1013.6 |
| 20260505234103 | 76 | 183 | 0.9 | 2.6 | 0.00 | 0.00 | 0.00 | 43 | 1013.7 |
| 20260505233550 | 76 | 154 | 0.9 | 5.2 | 0.00 | 0.00 | 0.00 | 43 | 1013.7 |
| 20260505233059 | 76 | 178 | 1.7 | 5.2 | 0.00 | 0.00 | 0.00 | 43 | 1013.7 |
| 20260505232603 | 76 | 161 | 1.7 | 4.3 | 0.00 | 0.00 | 0.00 | 43 | 1013.7 |
| 20260505232051 | 77 | 165 | 0.9 | 7.0 | 0.00 | 0.00 | 0.00 | 43 | 1013.5 |
| 20260505231557 | 77 | 197 | 3.5 | 7.8 | 0.00 | 0.00 | 0.00 | 42 | 1013.5 |